This demonstration page uses our WeatherBlox Daily Observations layout. Learn more.

Left ArrowRight Arrow

39.51506, -84.39828

Hourly Observations for May 31, 2019

Temp ( °F °C ) Dew Point ( °F °C ) Humidity (%) Winds ( mph kmh ) Pressure ( in mb ) Visibility ( mi km ) Precip ( " mm )
12:15 am 00:15 Clear 59 15.2 58 14.7 97 97 Calm 29.86 1011 10 16 0.00 0.00
12:35 am 00:35 Clear 59 14.9 58 14.4 97 97 SW 3 6 29.86 1011 10 16 0.00 0.00
12:55 am 00:55 Clear 59 14.9 57 14.1 95 95 Calm 29.85 1011 10 16 0.00 0.00
1:15 am 01:15 Clear 58 14.6 57 14 96 96 Calm 29.86 1011 10 16 0.00 0.00
1:35 am 01:35 Cloudy 59 15.1 58 14.7 97 97 Calm 29.86 1011 10 16 0.00 0.00
1:55 am 01:55 Cloudy 61 16.3 59 15 92 92 WNW 5 7 29.86 1011 10 16 0.00 0.00
2:15 am 02:15 Cloudy with Nearby Thunderstorms 62 16.7 60 15.4 92 92 Calm 29.86 1011 10 16 0.01 0.25
2:35 am 02:35 Cloudy with Nearby Thunderstorms 63 17.2 59 15.1 88 88 Calm 29.85 1011 10 16 0.01 0.25
2:55 am 02:55 Cloudy 62 16.9 60 15.8 93 93 SW 3 6 29.85 1011 10 16 0.01 0.25
3:15 am 03:15 Cloudy 62 16.7 61 16 96 96 E 3 6 29.83 1010 10 16 0.00 0.00
3:35 am 03:35 Mostly Cloudy 62 16.5 60 15.8 96 96 Calm 29.82 1010 10 16 0.00 0.00
3:55 am 03:55 Cloudy 61 16 60 15.6 97 97 Calm 29.81 1010 10 16 0.00 0.00
4:15 am 04:15 Clear 60 15.7 59 15.2 97 97 SW 5 7 29.81 1010 10 16 0.00 0.00
4:35 am 04:35 Clear 60 15.3 59 14.8 97 97 W 3 6 29.82 1010 10 16 0.00 0.00
4:55 am 04:55 Clear 60 15.4 59 15 97 97 Calm 29.82 1010 10 16 0.00 0.00
5:15 am 05:15 Mostly Cloudy 60 15.7 60 15.4 98 98 NNW 5 7 29.82 1010 10 16 0.00 0.00
5:35 am 05:35 Partly Cloudy 61 16 60 15.5 97 97 NNW 7 11 29.83 1010 10 16 0.00 0.00
5:55 am 05:55 Clear 62 16.4 59 15.1 92 92 NNW 6 9 29.85 1011 10 16 0.00 0.00
6:15 am 06:15 Sunny 62 16.4 59 14.9 91 91 Calm 29.86 1011 10 16 0.00 0.00
6:35 am 06:35 Partly Cloudy 60 15.8 59 14.8 94 94 NW 3 6 29.87 1012 10 16 0.00 0.00
6:55 am 06:55 Partly Cloudy 61 16.1 60 15.3 95 95 NNE 5 7 29.88 1012 10 16 0.00 0.00
7:15 am 07:15 Partly Cloudy 61 16.3 60 15.3 94 94 Calm 29.89 1012 10 16 0.00 0.00
7:35 am 07:35 Mostly Cloudy 62 16.8 61 15.9 94 94 ENE 3 6 29.88 1012 10 16 0.00 0.00
7:55 am 07:55 Sunny 63 17.1 61 15.9 93 93 N 5 7 29.88 1012 10 16 0.00 0.00
8:15 am 08:15 Partly Cloudy 64 17.8 61 16.1 90 90 N 3 6 29.88 1012 10 16 0.00 0.00
8:35 am 08:35 Mostly Cloudy 66 18.9 62 16.7 87 87 Calm 29.88 1012 10 16 0.00 0.00
8:55 am 08:55 Sunny 67 19.2 63 17.1 88 88 W 3 6 29.89 1012 10 16 0.00 0.00
9:15 am 09:15 Mostly Cloudy 67 19.5 63 17 86 86 NW 3 6 29.90 1012 10 16 0.00 0.00
9:35 am 09:35 Mostly Cloudy 67 19.4 62 16.9 86 86 SW 6 9 29.90 1012 10 16 0.00 0.00
9:55 am 09:55 Cloudy 67 19.7 63 17.3 86 86 WSW 3 6 29.90 1012 10 16 0.00 0.00
10:15 am 10:15 Partly Cloudy 68 19.8 63 17.4 86 86 WSW 5 7 29.90 1012 10 16 0.00 0.00
10:35 am 10:35 Partly Cloudy 68 19.8 64 17.7 88 88 Calm 29.90 1012 10 16 0.00 0.00
10:55 am 10:55 Sunny 69 20.3 64 17.7 85 85 Calm 29.88 1012 10 16 0.00 0.00
11:15 am 11:15 Partly Cloudy 70 21.3 63 17.4 79 79 Calm 29.88 1012 10 16 0.00 0.00
11:35 am 11:35 Mostly Cloudy 74 23.4 64 17.8 71 71 NNW 5 7 29.88 1012 10 16 0.00 0.00
11:55 am 11:55 Mostly Cloudy 74 23.6 63 17.4 68 68 NW 5 7 29.88 1012 10 16 0.00 0.00
12:15 pm 12:15 Mostly Cloudy 75 23.9 64 17.6 68 68 NW 8 13 29.88 1012 10 16 0.00 0.00
12:35 pm 12:35 Mostly Cloudy 74 23.6 62 16.7 65 65 NNW 7 11 29.88 1012 10 16 0.00 0.00
12:55 pm 12:55 Partly Cloudy 76 24.2 64 17.5 66 66 W 5 7 29.88 1012 10 16 0.00 0.00
1:15 pm 13:15 Cloudy with Thunderstorms 74 23.5 64 18 71 71 NW 10 17 29.88 1012 10 16 0.00 0.00
1:35 pm 13:35 Mostly Cloudy with Thunderstorms 73 22.9 62 16.8 69 69 NW 7 11 29.88 1012 10 16 0.00 0.00
1:55 pm 13:55 Mostly Cloudy 73 23 62 16.9 69 69 Calm 29.87 1011 10 16 0.00 0.00
2:15 pm 14:15 Partly Cloudy 74 23.5 62 16.5 65 65 WSW 5 7 29.86 1011 10 16 0.00 0.00
2:35 pm 14:35 Mostly Cloudy 73 22.8 63 17.4 72 72 SW 6 9 29.87 1011 10 16 0.00 0.00
2:55 pm 14:55 Cloudy 71 21.7 64 17.9 79 79 NE 9 15 29.88 1012 10 16 0.00 0.00
3:15 pm 15:15 Cloudy 67 19.4 63 17 86 86 E 6 9 29.90 1012 10 16 0.01 0.25
3:35 pm 15:35 Cloudy 66 18.9 63 17.1 89 89 SE 3 6 29.90 1012 10 16 0.02 0.51
3:55 pm 15:55 Cloudy with Nearby Thunderstorms 67 19.2 63 17.1 88 88 SSE 7 11 29.90 1012 10 16 0.02 0.51
4:15 pm 16:15 Cloudy with Light Rain 67 19.3 64 17.8 91 91 S 7 11 29.90 1012 10 16 0.00 0.00
4:35 pm 16:35 Sunny with Light Rain 67 19.7 65 18.2 91 91 S 7 11 29.89 1012 10 16 0.00 0.00
4:55 pm 16:55 Sunny 70 21.2 65 18.1 83 83 S 5 7 29.88 1012 10 16 0.00 0.00
5:15 pm 17:15 Sunny 70 21 62 16.5 76 76 SSW 7 11 29.88 1012 10 16 0.00 0.00
5:35 pm 17:35 Partly Cloudy 69 20.7 62 16.8 78 78 WSW 3 6 29.88 1012 10 16 0.00 0.00
5:55 pm 17:55 Cloudy with Light Rain 68 19.9 65 18.4 91 91 Calm 29.89 1012 10 16 0.01 0.25
6:15 pm 18:15 Partly Cloudy with Light Rain 68 19.9 65 18.4 91 91 NW 6 9 29.89 1012 10 16 0.00 0.00
6:35 pm 18:35 Partly Cloudy 69 20.4 65 18.4 88 88 WNW 5 7 29.88 1012 10 16 0.00 0.00
6:55 pm 18:55 Partly Cloudy with Nearby Thunderstorms 69 20.8 65 18.6 87 87 W 6 9 29.87 1012 10 16 0.00 0.00
7:15 pm 19:15 Partly Cloudy 69 20.6 65 18.2 86 86 WSW 5 7 29.87 1012 10 16 0.00 0.00
7:35 pm 19:35 Sunny 69 20.4 64 18 86 86 W 5 7 29.87 1012 10 16 0.00 0.00
7:55 pm 19:55 Sunny 68 20.1 65 18.3 89 89 Calm 29.87 1012 10 16 0.00 0.00
8:15 pm 20:15 Sunny 67 19.6 65 18.2 92 92 SW 3 6 29.89 1012 10 16 0.00 0.00
8:35 pm 20:35 Sunny 67 19.5 64 17.5 88 88 Calm 29.89 1012 10 16 0.00 0.00
8:55 pm 20:55 Sunny 64 17.7 63 17.3 98 98 W 5 7 29.89 1012 7 11 0.00 0.00
9:15 pm 21:15 Clear 63 17.3 62 16.9 98 98 W 5 7 29.89 1012 10 16 0.00 0.00
9:35 pm 21:35 Clear 64 17.7 62 16.6 93 93 SW 5 7 29.89 1012 10 16 0.00 0.00
9:55 pm 21:55 Clear 63 17.4 62 16.5 94 94 SW 3 6 29.89 1012 10 16 0.00 0.00
10:15 pm 22:15 Clear 63 17.4 62 16.4 94 94 SW 3 6 29.90 1013 10 16 0.00 0.00
10:35 pm 22:35 Clear 63 17 61 16.1 94 94 Calm 29.90 1013 10 16 0.00 0.00
10:55 pm 22:55 Clear 62 16.7 61 16.3 98 98 Calm 29.90 1013 10 16 0.00 0.00
11:15 pm 23:15 Mostly Cloudy with Mist and Fog 61 16.1 61 15.9 99 99 Calm 29.90 1013 1 2 0.00 0.00
11:35 pm 23:35 Clear with Mist and Fog 61 15.9 60 15.8 99 99 Calm 29.90 1013 4 6 0.00 0.00
11:55 pm 23:55 Clear with Mist and Fog 59 15.1 59 15 99 99 Calm 29.91 1013 4 6 0.00 0.00

Powered by AerisWeather